GW1514 Weather Reports


time (UTC)temp
C
wind
direction
speed
KPH
gust
KPH
rain 1hr
cm
rain 24hr
cm
rain mn
cm
humidity
%
barometer
mb
20260505120949 9 0 6.4 19.3 0.00 0.00 0.00 79 1009.9
20260505120439 9 0 8.0 22.5 0.00 0.00 0.00 79 1010.0
20260505115935 9 0 17.7 22.5 0.00 0.00 0.00 79 1010.0
20260505115424 9 0 16.1 19.3 0.00 0.00 0.00 80 1009.8
20260505114909 9 0 14.5 27.4 0.00 0.00 0.00 81 1009.5
20260505114403 8 0 16.1 27.4 0.00 0.00 0.00 81 1009.4
20260505113852 8 0 19.3 32.2 0.00 0.00 0.00 81 1009.2
20260505113339 8 0 20.9 32.2 0.00 0.00 0.00 81 1009.6
20260505112831 8 0 16.1 33.8 0.00 0.00 0.00 80 1009.4
20260505112320 9 0 20.9 33.8 0.00 0.00 0.00 78 1009.6
20260505111810 9 0 22.5 33.8 0.00 0.00 0.00 78 1009.5
20260505111301 9 0 20.9 29.0 0.00 0.00 0.00 77 1009.6
20260505110752 9 0 17.7 25.7 0.00 0.00 0.00 76 1009.8
20260505110239 9 0 17.7 27.4 0.00 0.00 0.00 74 1010.0
20260505102117 9 0 8.0 19.3 0.00 0.00 0.00 70 1008.9
20260505100547 9 0 8.0 17.7 0.00 0.00 0.00 70 1009.2
20260505100037 9 0 6.4 24.1 0.00 0.00 0.00 70 1009.0
20260505095527 9 0 9.7 24.1 0.00 0.00 0.00 71 1009.0
20260505095026 9 0 11.3 24.1 0.00 0.00 0.00 71 1008.8
20260505094507 9 0 9.7 24.1 0.00 0.00 0.00 71 1008.8
20260505093956 8 0 14.5 20.9 0.00 0.00 0.00 72 1008.8
20260505093446 9 0 11.3 27.4 0.00 0.00 0.00 72 1008.8
20260505092936 9 0 12.9 27.4 0.00 0.00 0.00 71 1009.0
20260505092426 9 0 17.7 32.2 0.00 0.00 0.00 72 1008.9
20260505091406 9 0 12.9 30.6 0.00 0.00 0.00 71 1009.0
20260505090856 9 0 14.5 27.4 0.00 0.00 0.00 71 1009.0
20260505090346 9 225 20.9 27.4 0.00 0.00 0.00 71 1009.0
20260505085835 8 0 19.3 25.7 0.00 0.00 0.00 71 1009.3
20260505085325 8 315 11.3 25.7 0.00 0.00 0.00 72 1009.5
20260505084306 8 0 3.2 14.5 0.00 0.00 0.00 71 1009.0
20260505083756 8 338 3.2 19.3 0.00 0.00 0.00 71 1009.2
20260505083245 8 338 4.8 19.3 0.00 0.00 0.00 71 1009.2
20260505082225 8 0 8.0 24.1 0.00 0.00 0.00 70 1009.2
20260505081207 8 0 12.9 25.7 0.00 0.00 0.00 71 1009.2
20260505080654 8 0 12.9 25.7 0.00 0.00 0.00 71 1008.9
20260505080146 8 0 12.9 25.7 0.00 0.00 0.00 71 1009.0
20260505075635 8 0 19.3 25.7 0.00 0.00 0.00 71 1009.2
20260505075125 8 315 8.0 27.4 0.00 0.00 0.00 70 1009.0
20260505074615 8 0 17.7 27.4 0.00 0.00 0.00 71 1008.9
20260505074103 8 0 12.9 24.1 0.00 0.00 0.00 72 1009.2
20260505073556 8 0 11.3 24.1 0.00 0.00 0.00 72 1009.2
20260505072534 8 0 12.9 27.4 0.00 0.00 0.00 71 1009.4
20260505072026 8 0 8.0 30.6 0.00 0.00 0.00 71 1009.4
20260505071517 8 0 17.7 32.2 0.00 0.00 0.00 71 1009.4
20260505071004 8 0 17.7 32.2 0.00 0.00 0.00 71 1009.5
20260505070447 8 0 17.7 0.0 0.00 0.00 0.00 72 1009.4
20260505070219 8 0 24.1 0.0 0.00 0.00 0.00 72 1009.4
20260505065701 8 0 17.7 24.1 0.00 0.00 0.00 73 1009.4
20260505065150 8 0 16.1 24.1 0.00 0.00 0.00 72 1009.6
20260505064640 8 0 9.7 27.4 0.00 0.00 0.00 72 1009.7
20260505064129 8 0 9.7 27.4 0.00 0.00 0.00 73 1009.7
20260505063620 8 315 14.5 24.1 0.00 0.00 0.00 73 1009.9
20260505063110 8 0 11.3 27.4 0.00 0.00 0.00 73 1009.8
20260505062559 8 0 17.7 27.4 0.00 0.00 0.00 74 1009.9
20260505062111 8 0 12.9 20.9 0.00 0.00 0.00 74 1009.7
20260505061039 8 0 12.9 20.9 0.00 0.00 0.00 74 1010.0
20260505060016 8 0 11.3 20.9 0.00 0.00 0.00 74 1010.0
20260505055500 7 0 12.9 37.0 0.00 0.00 0.00 74 1010.1
20260505054440 7 0 20.9 32.2 0.00 0.00 0.00 74 1010.0
20260505053933 7 0 22.5 29.0 0.00 0.00 0.00 76 1010.0
20260505053419 7 0 20.9 29.0 0.00 0.00 0.00 77 1010.1
20260505052909 7 0 12.9 22.5 0.00 0.00 0.00 78 1010.0
20260505052359 7 0 12.9 22.5 0.00 0.00 0.00 78 1009.9
20260505051849 7 315 14.5 24.1 0.00 0.00 0.00 79 1010.1
20260505051339 7 0 12.9 24.1 0.00 0.00 0.00 79 1010.3
20260505050831 7 0 14.5 27.4 0.00 0.00 0.00 79 1010.1
20260505050319 7 0 17.7 30.6 0.00 0.00 0.00 79 1010.1
20260505041648 7 0 14.5 30.6 0.00 0.00 0.00 79 1010.4
20260505041137 7 0 17.7 29.0 0.00 0.00 0.00 79 1010.3
20260505040627 7 0 16.1 30.6 0.00 0.00 0.00 78 1010.4
20260505040116 7 0 20.9 30.6 0.00 0.00 0.00 77 1010.4
20260505035607 8 23 24.1 29.0 0.00 0.00 0.00 77 1010.4
20260505035056 8 0 19.3 24.1 0.00 0.00 0.00 77 1010.5
20260505034547 8 0 17.7 24.1 0.00 0.00 0.00 77 1010.5
20260505034037 8 0 9.7 24.1 0.00 0.00 0.00 77 1010.5
20260505033526 8 0 12.9 25.7 0.00 0.00 0.00 77 1010.6
20260505033018 8 0 12.9 25.7 0.00 0.00 0.00 78 1010.7
20260505032509 8 0 8.0 22.5 0.00 0.00 0.00 78 1010.6
20260505030942 8 0 12.9 17.7 0.00 0.00 0.00 77 1010.7
20260505030427 8 0 14.5 17.7 0.00 0.00 0.00 75 1010.8
20260505025927 8 0 9.7 17.7 0.00 0.00 0.00 75 1010.8
20260505025409 8 225 9.7 17.7 0.00 0.00 0.00 74 1010.9
20260505024855 8 0 9.7 22.5 0.00 0.00 0.00 73 1010.8
20260505024347 8 0 8.0 22.5 0.00 0.00 0.00 72 1010.8
20260505023835 8 0 12.9 20.9 0.00 0.00 0.00 72 1010.6
20260505023325 8 0 14.5 17.7 0.00 0.00 0.00 73 1010.6
20260505022815 8 45 14.5 17.7 0.00 0.00 0.00 73 1010.6
20260505022306 8 23 12.9 17.7 0.00 0.00 0.00 72 1010.7
20260505021245 8 0 12.9 17.7 0.00 0.00 0.00 72 1010.6
20260505020734 8 0 9.7 14.5 0.00 0.00 0.00 72 1010.7
20260505015714 8 0 9.7 17.7 0.00 0.00 0.00 72 1010.5
20260505015203 8 0 8.0 17.7 0.00 0.00 0.00 70 1010.7
20260505014654 8 0 12.9 17.7 0.00 0.00 0.00 69 1010.5
20260505014144 8 45 11.3 16.1 0.00 0.00 0.00 70 1010.6
20260505013123 8 0 4.8 17.7 0.00 0.00 0.00 71 1010.4
20260505012616 8 0 16.1 17.7 0.00 0.00 0.00 70 1010.4
20260505012103 8 23 6.4 24.1 0.00 0.00 0.00 70 1010.0
20260505011553 8 0 12.9 24.1 0.00 0.00 0.00 71 1010.0
20260505011043 8 0 8.0 19.3 0.00 0.00 0.00 71 1010.0
20260505010533 8 0 8.0 20.9 0.00 0.00 0.00 70 1010.0
20260505010023 8 45 12.9 20.9 0.00 0.00 0.00 71 1010.0
20260505005513 8 0 14.5 20.9 0.00 0.00 0.00 71 1009.9
20260505005003 8 0 8.0 17.7 0.00 0.00 0.00 70 1010.1
20260505004453 8 0 11.3 17.7 0.00 0.00 0.00 70 1010.0
20260505003943 8 315 6.4 12.9 0.00 0.00 0.00 70 1010.1
20260505003433 9 0 4.8 19.3 0.00 0.00 0.00 69 1009.9
20260505002922 9 0 8.0 20.9 0.00 0.00 0.00 69 1010.0
20260505002412 9 0 11.3 20.9 0.00 0.00 0.00 69 1009.8
20260505001901 9 0 6.4 24.1 0.00 0.00 0.00 68 1010.0
20260505001352 9 0 9.7 30.6 0.00 0.00 0.00 68 1009.9
20260505000842 9 0 12.9 30.6 0.00 0.00 0.00 67 1010.1
20260505000332 9 338 17.7 29.0 0.00 0.00 0.00 67 1009.9
20260504235822 9 315 14.5 22.5 0.00 0.00 0.00 69 1009.8
20260504235311 9 0 12.9 17.7 0.00 0.00 0.00 68 1010.1
20260504234802 9 0 6.4 17.7 0.00 0.00 0.00 69 1010.1
20260504234251 9 0 6.4 20.9 0.00 0.00 0.00 68 1009.9
20260504233741 10 0 12.9 20.9 0.00 0.00 0.00 68 1009.8
20260504233230 10 315 6.4 24.1 0.00 0.00 0.00 68 1009.7
20260504232211 10 315 11.3 27.4 0.00 0.00 0.00 67 1009.8
20260504230641 10 45 16.1 24.1 0.00 0.00 0.00 66 1009.5
20260504230130 10 338 6.4 24.1 0.00 0.00 0.00 66 1009.5
20260504225621 10 315 14.5 27.4 0.00 0.00 0.00 66 1009.6
20260504225110 10 0 9.7 27.4 0.00 0.00 0.00 65 1009.6
20260504224600 10 0 12.9 27.4 0.00 0.00 0.00 65 1009.6
20260504224050 10 315 17.7 27.4 0.00 0.00 0.00 64 1009.4
20260504223540 10 0 12.9 24.1 0.00 0.00 0.00 64 1009.5
20260504223034 10 0 17.7 24.1 0.00 0.00 0.00 64 1009.4
20260504222010 10 315 6.4 27.4 0.00 0.00 0.00 64 1009.3
20260504221459 10 0 9.7 29.0 0.00 0.00 0.00 64 1009.2
20260504220950 10 0 17.7 29.0 0.00 0.00 0.00 64 1009.2
20260504220439 10 45 12.9 29.0 0.00 0.00 0.00 64 1009.2
20260504215929 10 45 14.5 20.9 0.00 0.00 0.00 63 1008.9
20260504215419 10 0 12.9 22.5 0.00 0.00 0.00 63 1009.2
20260504214909 10 0 12.9 22.5 0.00 0.00 0.00 63 1009.0
20260504214401 10 0 17.7 25.7 0.00 0.00 0.00 63 1008.9
20260504213848 10 0 8.0 25.7 0.00 0.00 0.00 62 1009.0
20260504212828 10 45 9.7 24.1 0.00 0.00 0.00 62 1009.3
20260504212318 11 0 6.4 24.1 0.00 0.00 0.00 62 1009.4
20260504211808 11 315 8.0 24.1 0.00 0.00 0.00 61 1009.3
20260504211258 11 0 11.3 17.7 0.00 0.00 0.00 60 1009.3
20260504210748 11 315 12.9 24.1 0.00 0.00 0.00 60 1009.4
20260504210237 11 0 14.5 24.1 0.00 0.00 0.00 59 1009.4
20260504205728 11 0 16.1 20.9 0.00 0.00 0.00 59 1009.3
20260504205219 11 315 12.9 20.9 0.00 0.00 0.00 57 1009.5
20260504204707 11 315 12.9 20.9 0.00 0.00 0.00 56 1009.3
20260504204158 11 315 4.8 24.1 0.00 0.00 0.00 55 1009.5
20260504203648 11 315 8.0 24.1 0.00 0.00 0.00 53 1009.3
20260504203137 12 315 11.3 22.5 0.00 0.00 0.00 51 1009.2
20260504202627 12 315 14.5 24.1 0.00 0.00 0.00 51 1009.3
20260504202117 11 0 20.9 25.7 0.00 0.00 0.00 52 1009.3
20260504201607 11 0 6.4 33.8 0.00 0.00 0.00 51 1009.2
20260504201057 11 315 19.3 35.4 0.00 0.00 0.00 50 1009.3
20260504200546 12 315 24.1 35.4 0.00 0.00 0.00 47 1009.3
20260504200037 13 0 17.7 27.4 0.00 0.00 0.00 44 1009.2
20260504195526 13 0 12.9 27.4 0.00 0.00 0.00 41 1009.3
20260504195017 14 315 11.3 27.4 0.00 0.00 0.00 43 1009.3
20260504194506 14 0 19.3 30.6 0.00 0.00 0.00 42 1009.3
20260504193956 14 0 12.9 30.6 0.00 0.00 0.00 43 1009.3
20260504192936 13 0 12.9 32.2 0.00 0.00 0.00 45 1009.0
20260504192426 14 293 17.7 25.7 0.00 0.00 0.00 43 1009.0
20260504191916 14 0 14.5 24.1 0.00 0.00 0.00 43 1009.3
20260504191406 13 338 12.9 27.4 0.00 0.00 0.00 49 1009.5
20260504190857 12 0 11.3 27.4 0.00 0.00 0.00 50 1009.7
20260504190346 11 0 6.4 29.0 0.00 0.00 0.00 52 1009.7
20260504185834 11 315 16.1 29.0 0.00 0.00 0.00 52 1009.7
20260504185324 11 0 16.1 27.4 0.00 0.00 0.00 51 1009.7
20260504184815 12 0 17.7 25.7 0.00 0.00 0.00 49 1009.8
20260504184304 12 293 12.9 27.4 0.00 0.00 0.00 49 1009.8
20260504183754 12 293 8.0 33.8 0.00 0.00 0.00 49 1009.9
20260504183244 12 315 20.9 33.8 0.00 0.00 0.00 48 1009.9
20260504182734 12 315 17.7 30.6 0.00 0.00 0.00 47 1009.9
20260504182223 12 315 6.4 30.6 0.00 0.00 0.00 45 1009.9
20260504181714 13 338 22.5 30.6 0.00 0.00 0.00 44 1009.8
20260504181204 14 270 14.5 30.6 0.00 0.00 0.00 43 1010.0
20260504180654 14 0 17.7 30.6 0.00 0.00 0.00 43 1010.0
20260504180146 14 315 6.4 33.8 0.00 0.00 0.00 43 1010.1
20260504175634 14 315 20.9 33.8 0.00 0.00 0.00 44 1010.0
20260504175125 14 315 12.9 33.8 0.00 0.00 0.00 44 1010.0
20260504174615 14 293 14.5 33.8 0.00 0.00 0.00 44 1009.9
20260504174103 13 293 24.1 45.1 0.00 0.00 0.00 46 1009.9
20260504173554 13 0 12.9 45.1 0.00 0.00 0.00 45 1010.0
20260504173046 13 315 11.3 24.1 0.00 0.00 0.00 46 1009.8
20260504172532 14 315 12.9 24.1 0.00 0.00 0.00 43 1009.7
20260504172022 14 293 17.7 30.6 0.00 0.00 0.00 45 1009.7
20260504171512 13 315 12.9 32.2 0.00 0.00 0.00 47 1009.6
20260504171002 13 315 17.7 32.2 0.00 0.00 0.00 45 1009.7
20260504170453 14 293 17.7 30.6 0.00 0.00 0.00 47 1009.5
20260504140909 11 0 20.9 33.8 0.00 0.00 0.00 61 1010.3
20260504130707 10 0 17.7 32.2 0.00 0.00 0.00 65 1009.9
20260504130157 10 315 19.3 30.6 0.00 0.00 0.00 65 1009.7